Wind_Speed
4 5 2 4 4 7 8 10 6 4 7 19 17 16 12 6 10 12 12 14 11 7 7 9 11 11 12 13 13 11 16 18 16 17 19 23 24 27 28 27 30 32 32 29
4 4 7 5 8 9 10 9 11 18 23 23 15 6 4 7 9 11 13 15 6 7 7 8 12 12 15 17 17 17 22 23 21 22 25 26 28 28 31 30 31 32 29 25
4 4 3 5 9 12 5 5 9 12 14 5 6 8 3 6 7 9 11 11 10 7 5 7 11 12 17 18 20 24 25 23 23 24 23 26 28 30 31 30 28 26 24 21
3 3 1 6 4 6 13 10 12 12 12 7 4 2 3 3 6 7 8 9 8 7 7 9 10 11 14 15 19 21 23 25 23 24 23 27 31 31 28 25 26 23 18 14
1 2 6 2 3 5 5 6 5 7 6 4 3 5 2 5 5 6 5 5 8 10 9 10 10 9 13 15 18 18 18 20 21 26 27 29 31 31 26 23 21 17 16 11
1 1 3 2 3 1 4 3 5 3 5 2 3 2 1 3 4 4 7 9 9 10 12 12 10 9 14 16 18 16 17 18 19 21 26 29 28 25 22 20 16 12 10 7
3 3 6 7 3 3 2 4 2 2 3 2 2 1 3 4 4 6 6 8 9 10 11 12 11 13 18 18 18 19 22 23 23 24 26 24 23 20 20 17 12 11 11 10
4 3 6 4 2 2 3 3 2 3 3 3 4 5 4 4 3 4 5 7 7 10 11 11 12 15 17 17 18 20 21 23 22 21 21 20 19 14 12 13 13 12 11 9
7 5 5 2 2 2 3 4 2 3 4 6 7 4 4 4 5 4 5 6 7 9 11 11 12 16 17 15 20 21 21 20 19 19 16 13 14 14 14 11 10 9 7 6
1 4 8 7 4 4 4 3 2 3 5 7 8 8 6 4 5 5 8 8 8 9 11 11 14 18 19 18 19 19 19 17 16 16 14 12 12 11 10 9 8 7 6 6
5 8 7 3 4 3 3 2 2 2 6 7 8 8 8 6 5 7 9 10 11 11 11 12 15 15 16 16 16 18 17 16 14 13 12 13 12 10 10 10 8 7 7 6
4 2 2 6 1 3 4 3 4 5 4 5 7 9 7 7 10 10 11 12 11 12 14 13 14 13 12 12 16 18 16 14 12 11 10 10 11 13 11 10 9 7 7 7
4 4 4 5 2 3 3 4 3 5 5 7 6 10 11 8 10 12 11 12 13 14 15 14 14 13 11 13 14 14 15 13 11 9 8 8 7 6 6 5 5 7 8 7
8 4 4 3 3 5 3 3 4 4 5 8 10 13 14 13 13 12 13 14 16 16 16 15 15 14 13 14 13 13 11 9 8 8 7 6 6 5 5 6 6 7 6 8
10 6 5 3 3 4 3 4 4 4 4 5 13 13 15 13 11 12 15 15 16 16 16 17 16 15 13 13 11 10 9 8 7 6 5 4 4 4 4 3 4 6 8 7
12 10 6 4 4 4 4 5 5 5 5 4 8 11 14 15 15 16 18 19 18 14 17 17 15 13 12 10 9 9 7 6 4 4 3 3 2 2 2 2 4 6 8 9
7 6 3 3 5 5 7 5 5 6 5 7 10 15 17 17 15 15 17 18 17 19 17 17 15 14 12 10 8 8 8 6 5 4 4 2 1 0 1 3 4 5 7 8
7 10 12 11 7 5 6 7 8 10 7 12 15 16 15 16 13 15 19 19 19 17 17 17 16 15 13 11 10 10 9 8 6 5 4 3 2 1 2 3 4 6 8 8
11 9 8 7 9 6 6 7 11 13 15 16 16 13 15 16 18 19 23 21 22 21 20 18 17 15 14 13 11 10 9 9 7 6 4 3 3 3 3 5 6 7 8 9
11 14 13 6 3 3 5 11 15 13 16 18 17 15 14 18 21 21 23 20 24 22 23 21 19 16 15 13 12 11 10 9 8 6 4 3 3 4 4 5 7 8 9 10
10 12 10 7 3 1 6 12 12 11 15 19 18 15 15 21 23 25 20 14 23 20 23 21 19 18 16 14 13 11 10 9 7 5 4 5 5 6 7 7 9 9 11 12
11 8 10 10 6 2 4 9 12 13 15 17 16 17 19 18 22 22 21 17 24 21 25 22 20 18 16 14 13 11 9 8 7 5 5 6 7 8 8 9 10 11 12 13
12 12 12 11 8 4 3 6 10 13 16 19 20 21 22 21 23 19 11 21 24 23 25 23 20 18 16 14 12 11 9 8 7 6 7 7 8 9 10 11 12 13 14 14
13 14 14 16 9 3 1 4 9 13 16 18 21 23 24 20 21 23 17 22 24 25 25 22 20 17 16 14 13 11 10 8 7 8 8 9 10 11 12 12 14 14 14 14
15 16 15 15 10 6 7 5 7 11 12 14 17 20 23 24 21 27 22 21 25 25 24 22 19 17 17 14 13 11 10 9 8 9 10 11 12 12 13 14 15 15 16 16
13 11 15 15 12 13 11 6 7 9 11 12 15 18 20 21 20 16 24 22 26 25 25 23 21 21 17 14 12 11 10 9 9 10 12 13 13 14 14 14 15 16 17 19
13 12 13 14 16 16 12 9 9 11 12 14 14 19 21 23 22 20 25 24 28 27 26 25 23 21 16 14 12 11 10 10 11 11 12 13 14 14 15 16 17 18 19 20
Wind_Direction
266 249 214 222 211 186 192 206 185 234 254 277 295 307 314 348 342 333 333 327 318 333 344 13 37 48 59 57 64 86 96 99 102 117 117 122 122 125 127 126 131 140 138 133
289 281 218 243 231 219 221 231 254 261 275 279 287 288 341 345 338 337 336 335 17 30 20 26 45 53 68 71 72 81 83 81 90 96 109 108 108 112 117 122 126 130 127 129
278 340 313 286 228 201 197 209 218 240 250 295 312 332 332 332 340 339 339 359 13 23 22 60 76 82 80 85 99 83 76 77 82 89 85 96 107 112 113 119 122 121 124 127
267 359 319 243 187 181 202 239 218 258 276 295 303 157 106 6 351 348 355 14 23 24 33 62 84 98 101 100 96 96 99 105 106 107 106 109 113 110 113 121 123 123 123 124
270 262 283 268 167 137 171 273 204 217 259 297 348 144 175 23 22 11 15 40 42 38 45 63 73 90 97 92 92 96 100 106 114 125 124 124 118 120 122 125 119 121 119 125
275 263 249 247 129 53 121 299 199 195 267 313 317 301 13 34 30 44 45 52 64 59 59 56 61 78 83 82 84 79 81 93 109 116 115 115 120 117 114 111 109 105 119 133
223 267 284 252 267 174 77 256 186 219 246 174 237 217 118 115 75 71 73 73 75 75 68 68 84 92 77 83 83 105 110 115 115 115 112 113 116 116 109 105 117 128 122 118
182 235 265 191 95 164 222 270 237 219 201 169 122 136 110 114 108 89 87 77 80 87 73 90 105 106 93 90 109 111 112 111 110 108 108 107 104 106 118 133 133 130 122 109
196 215 244 249 256 226 191 225 269 193 174 145 151 177 151 136 139 110 100 93 88 96 90 94 105 116 104 110 120 120 112 108 107 105 106 115 123 124 121 123 117 107 93 71
194 259 247 256 239 221 208 221 253 223 175 167 159 159 152 154 145 137 120 121 116 108 96 91 115 118 117 122 124 121 115 112 109 107 109 108 105 102 102 95 94 94 87 75
250 281 288 259 224 211 212 216 244 152 175 173 152 166 158 151 146 135 124 132 135 120 112 113 124 123 128 130 132 122 118 117 113 113 113 109 99 89 90 81 75 84 74 44
236 282 236 271 277 169 203 231 221 176 159 165 173 163 157 152 151 147 138 146 136 129 128 130 133 131 135 138 141 133 126 127 127 126 123 120 115 109 84 79 72 61 38 15
272 292 228 268 250 167 199 213 195 189 180 170 163 154 152 144 145 145 141 147 152 148 147 146 143 138 145 153 152 145 139 138 134 129 122 108 91 77 67 53 51 45 30 18
353 317 277 195 271 178 155 143 128 124 149 159 155 155 147 140 151 153 155 161 161 158 152 148 146 142 150 155 154 144 137 135 125 107 90 81 75 68 50 34 19 4 5 3
357 347 282 293 92 101 104 130 126 146 138 129 151 144 145 145 159 159 167 167 164 160 154 153 149 144 152 156 151 143 139 129 119 110 93 84 77 62 45 31 9 350 348 360
317 306 290 275 209 170 155 175 164 175 160 142 146 150 156 158 156 155 162 172 158 157 165 162 156 150 155 160 156 149 141 136 134 126 127 119 98 78 36 1 348 342 341 344
318 322 322 276 234 217 210 198 188 178 163 163 159 159 152 145 142 146 158 172 179 174 172 170 164 163 167 171 174 168 164 162 170 167 168 164 150 66 343 335 331 322 324 330
262 263 265 255 263 230 208 198 183 174 172 168 156 154 155 157 159 155 162 169 169 168 174 177 176 174 175 178 182 181 181 181 184 184 179 187 205 273 304 309 312 319 325 326
326 309 298 257 236 224 189 176 172 169 164 162 155 167 171 170 164 166 172 170 168 169 179 180 181 182 183 185 188 190 191 190 190 191 196 197 235 270 294 307 314 317 316 317
342 341 342 353 15 160 144 152 157 161 166 163 163 163 163 173 178 173 176 174 184 187 181 181 186 186 187 188 193 197 199 201 203 207 218 244 265 274 290 294 300 307 310 312
344 343 352 347 341 90 155 167 165 163 167 174 169 178 174 182 185 181 172 178 192 191 186 186 188 188 189 192 198 201 206 208 211 220 233 260 268 275 286 297 302 305 307 310
344 344 347 355 349 329 202 193 191 181 174 180 183 179 171 172 180 184 195 196 190 189 188 190 191 193 194 199 202 207 212 217 225 237 259 272 275 279 288 297 301 303 302 306
340 342 346 354 349 313 228 211 205 195 182 187 188 185 184 185 185 178 195 203 196 191 194 194 193 195 195 203 207 213 219 225 236 255 267 276 281 288 296 302 302 301 302 307
346 345 342 348 338 337 223 227 219 218 217 212 208 207 191 176 194 201 205 203 197 196 197 195 196 193 194 208 213 219 227 236 247 258 268 273 284 290 294 299 299 300 303 306
346 348 349 353 351 343 326 280 218 206 208 214 216 213 211 209 201 203 205 200 196 196 197 197 196 193 206 211 219 227 237 245 254 264 273 282 290 293 298 300 301 303 306 310
340 341 342 342 327 326 322 293 247 232 211 203 210 213 211 211 209 209 200 203 196 199 198 194 194 203 213 216 224 234 244 252 261 269 281 288 293 296 300 301 301 303 306 307
345 341 337 341 350 345 332 306 268 250 227 222 215 216 211 204 205 205 200 197 200 202 198 198 201 209 216 220 229 239 249 259 268 278 282 289 294 300 302 302 304 307 308 309
Height
786 783 782 785 784 789 804 789 808 778 776 753 748 744 741 746 745 742 739 736 731 729 729 726 724 723 721 720 717 715 713 711 717 719 721 724 727 728 732 739 741 745 752 760
805 783 786 791 782 782 784 782 781 772 765 745 744 740 743 749 750 747 744 737 732 734 734 732 731 729 726 723 722 722 719 720 724 725 728 731 732 736 736 744 747 751 758 764
802 786 782 788 770 770 770 771 762 769 749 741 742 741 750 753 753 750 748 744 743 741 740 737 734 733 730 729 728 727 729 730 731 734 737 738 740 741 744 749 754 759 765 770
808 791 794 754 746 749 754 749 753 748 741 741 743 747 754 756 754 752 750 747 747 746 744 741 739 737 734 734 732 731 732 733 738 742 744 745 746 748 754 758 760 764 770 775
794 787 775 743 741 746 749 746 742 749 745 741 744 749 753 755 754 754 753 751 750 749 748 747 746 745 742 740 739 740 740 740 744 746 748 750 749 752 758 765 767 771 769 778
781 782 771 742 740 739 741 750 739 740 742 741 744 740 746 756 755 755 755 753 752 751 752 751 751 750 748 747 747 748 749 750 752 754 754 754 756 760 763 766 772 777 780 785
775 783 767 744 741 739 743 749 739 740 741 743 743 746 753 756 756 756 756 756 755 754 754 754 754 753 753 753 754 755 756 757 758 760 758 760 764 767 769 772 778 783 785 786
772 772 770 739 741 740 739 739 738 740 741 744 748 752 754 755 757 758 759 758 758 758 758 757 756 757 757 758 759 759 761 762 764 765 766 768 770 774 776 780 783 786 787 787
766 757 739 736 734 735 739 739 737 738 741 743 749 752 754 757 758 759 761 762 761 760 761 761 760 760 762 764 764 765 766 768 769 771 773 776 778 779 781 783 784 785 785 786
751 733 737 734 734 734 736 736 736 737 740 742 745 750 754 757 759 759 761 763 764 763 763 764 765 765 765 767 768 770 771 773 775 776 778 779 780 781 782 783 785 787 788 788
745 736 733 731 732 731 733 735 735 737 739 742 746 749 750 754 758 760 762 764 765 765 766 767 769 769 770 771 772 773 775 777 778 780 782 782 784 785 786 787 788 788 788 788
737 731 733 731 728 731 733 734 735 737 740 741 743 746 750 752 756 759 762 764 766 766 768 769 771 772 774 775 776 776 778 781 783 784 785 786 787 788 789 789 789 789 789 788
737 730 731 730 730 731 732 733 734 735 737 740 743 745 748 752 755 759 763 765 767 768 770 771 773 775 776 778 779 780 782 784 786 787 787 787 787 787 788 789 789 789 788 788
737 733 730 730 728 730 732 734 734 735 737 739 742 745 748 752 756 758 762 765 767 769 771 773 775 776 778 780 781 782 784 785 786 786 787 788 788 789 789 790 789 789 788 788
738 738 736 733 732 732 733 735 736 738 739 741 742 745 748 751 756 758 761 764 767 769 771 774 776 777 779 781 782 783 785 786 787 788 789 789 790 791 791 791 790 789 789 788
739 736 734 733 732 734 734 736 737 739 740 741 743 745 748 751 755 757 760 763 766 768 771 773 776 778 780 782 783 785 786 787 788 789 790 791 792 793 793 792 791 790 789 788
742 734 733 734 733 732 732 733 735 737 739 741 742 745 749 752 756 758 760 763 765 768 771 774 776 779 781 783 785 786 788 789 790 791 792 793 793 793 792 791 790 790 788 787
740 736 732 730 728 727 728 730 732 734 737 739 741 745 749 751 754 758 760 763 766 770 772 775 777 779 782 784 786 788 789 790 790 791 792 793 792 791 791 790 789 788 787 785
735 731 726 722 720 721 722 725 728 732 735 737 740 744 747 750 753 756 759 762 765 768 772 775 778 780 782 785 787 788 789 790 790 791 792 792 791 790 790 789 788 786 785 783
733 730 725 721 719 719 721 723 726 730 733 736 740 744 746 749 752 756 758 760 762 765 770 773 777 780 782 785 786 788 788 789 790 791 791 790 790 789 788 787 786 784 783 781
735 731 727 724 723 723 723 724 727 730 732 735 738 742 745 748 751 754 758 761 762 766 770 773 777 779 782 784 786 787 788 788 789 790 789 789 788 787 787 785 784 782 780 778
738 735 731 728 726 726 726 727 728 730 732 735 738 742 744 748 751 754 757 759 762 766 769 772 776 779 781 783 785 786 787 787 788 788 788 787 786 785 784 783 781 779 777 775
740 736 733 730 729 727 727 728 729 730 731 733 735 738 740 743 748 752 755 758 762 764 768 771 775 778 780 782 783 784 785 785 785 786 786 785 785 784 782 781 778 776 774 771
741 738 735 732 730 729 728 728 729 730 730 732 733 735 738 742 747 750 753 756 760 763 767 771 774 776 779 780 781 782 782 783 783 783 783 782 781 780 779 777 775 773 771 768
742 739 736 734 732 730 730 729 728 728 729 731 733 734 737 739 742 745 751 754 758 761 765 769 772 775 775 777 779 779 780 781 781 781 780 780 779 777 776 774 772 770 767 765
740 739 737 735 733 731 729 728 728 728 728 729 731 732 735 739 742 745 748 752 755 758 762 766 769 772 773 775 777 778 778 779 779 778 777 776 776 775 772 770 768 766 764 761
740 738 736 734 732 730 729 728 728 727 728 728 729 730 732 734 738 741 744 747 751 755 759 763 766 768 771 773 774 775 775 775 775 775 773 772 771 770 769 766 764 762 760 757